Погода в Починоке

Погода в Починоке : погода сейчас, прогноз погоды и архив. Всё, что Вы хотите узнать о погоде в Починоке!

Поиск расширенной информации на нашем сайте:

Другие новости

Новости СМИ2

Главная страница сайта

Новости сайта

03.07.2017

Напоминаем, что на нашем специализированном сайте Метеоцентр.Азия вы можете получить высокодетализированные автоматические прогнозы погоды по пунктам России, СНГ и мира в авиационном формате (включающие направление и скорость ветра, видимость, явления погоды, количество и форму облачности, нижнюю и верхнюю границу облачности).

Рекомендуем: в классическом стиле диваны интернет магазин

Погода в Починоке - сегодня

Время (UTC), дата Ветер
(°,м/с) 
Видим.   Явления Облачность Т
(°С)
Тd
(°С)
f(%) Тe
(°С)
Pmin
(гПа)
dP
(гПа)
Po
(мм)
O2
(г/м3)
Тmin Tmax R s Состояние
почвы
00 17.10.18 тихо ()   0500 м  туман  ясно 
+4.4 +4.2 99 +4  1027.7  752  297           
09 17.10.18 240 (ЮЗ) 20000 м    ясно 
+16.3 +10.1 67 +19  1027.1  0.2  752  284           
12 17.10.18 200 (Ю) 20000 м    ясно 
+19.8 +8.4 48 +21  1026  -0.7  752  281           
15 17.10.18 210 (ЮЗ) 10 км    ясно 
+13.9 +8.7 71 +15  1026.1  -0.4  751  287           
21 17.10.18 тихо ()   0500 м  туман  ясно 
+5.9 +5.6 98 +6  1027  0.1  751  295           
00 18.10.18 тихо ()   0500 м  туман  ясно 
+3 +2.9 99 +3  1027  -0.3  751  299           
09 18.10.18 220 (ЮЗ) 10 км    ясно 
+15.8 +10.1 69 +18  1024.4  -0.7  750  284           
12 18.10.18 220 (ЮЗ) 10 км    ясно 
+20.4 +9.6 50 +21  1022.1  -1.9  749  279           
15 18.10.18 тихо ()   10 км    3/0 верхняя 
[Ci fib]
+14.7 +9.3 70 +15  1021.2  -1.3  748  284           
21 18.10.18 130 (ЮВ) 10 км  туман поземный  ясно 
+7.2 +6.7 97 +8  1020.6  -0.6  747  292           
00 19.10.18 тихо ()   10 км  туман поземный  ясно 
+7.3 +7 98 +7  1019.7  -0.9  746  292           
09 19.10.18 230 (ЮЗ) 10 км  {туман}  ясно 
+13.3 +10.5 83 +17  1018  745  284           
15 19.10.18 350 (С) 10 км    4/0 средняя, верхняя 
[Ac trans|Ci fib]
+13.3 +8.3 72 +14  1017.7  0.1  745  285           
21 19.10.18 360 (С) 10 км    3/0 средняя 
[Ac trans]
+9.2 +6.4 83 +8  1020.7  1.2  747  290           
00 20.10.18 010 (С) 4000 м  туман поземный  ясно 
+5.8 +5.5 98 +6  1021.5  0.5  747  294           
09 20.10.18 100 (В) 2000 м  дымка{туман}  9/9 600 м 
[Sc]
+4.9 +4.8 99 +6  1024.1  0.9  749  296           
12 20.10.18 040 (СВ) 20000 м    3/0 верхняя 
[Ci fib]
+11.1 +1.5 52 +11  1022.4  -1.2  748  290           
15 20.10.18 010 (С) 20000 м    ясно 
+8.1 +0.7 60 +8  1022.5  0.1  748  293           
21 20.10.18 030 (СВ) 20000 м    ясно 
-0.4 -1.3 94 1024.4  0.6  749  302           
00 21.10.18 тихо ()   4000 м    ясно 
-1.2 -1.3 99 -1  1024.8  0.4  749  303           
09 21.10.18 040 (СВ) 20000 м    3/0 средняя 
[Ac trans]
+8.2 +2.4 67 +9  1026.8  1.4  751  294           
12 21.10.18 360 (С) 20000 м    8/0 средняя, верхняя 
[Ac trans|Cc]
+10 -0.1 49 +11  1026  -0.7  751  292           
15 21.10.18 020 (С) 20000 м    8/3 1000 м средняя, верхняя 
[Sc|Ac trans|Cc]
+6 -0.8 62 +7  1026.6  0.3  751  296           
21 21.10.18 120 (ЮВ) 10 км    ясно 
-2.1 -2.5 97 -2  1028.7  752  306           
00 22.10.18 110 (В) 4000 м  дымка  ясно 
-3.4 -3.5 99 -3  1028.5  -0.4  752  307           
Время (UTC), дата Ветер
(°,м/с) 
Видим.   Явления Облачность Т
(°С)
Тd
(°С)
f(%) Тe
(°С)
Pmin
(гПа)
dP
(гПа)
Po
(мм)
O2
(г/м3)
Тmin Tmax R s Состояние
почвы

Для получения пояснительной информации подведите курсор к названию столбца.

ПОГОДА в Починоке - архив

Всё, что Вы хотите узнать о погоде в Починоке - удобно и подробно!

Выберите нужную дату (начиная с 1 января 2015* года) и нажмите кнопку "Найти".
Будут отображены архивные сводки погоды по пункту Починок, начиная с указанной даты.


Отображать данные в формате CSV (для использования в таблицах Excel)


Внимание! Наш архив погоды предназначен исключительно для личного некоммерческого использования в познавательных целях. Если Вам необходимы официальные справки о состоянии погоды (для производственных, юридических, коммерческих и т.п. целей), обращайтесь в органы Росгидромета.

*Примечание: данная дата относится к архиву по метеостанциям СССР (Россия, СНГ, Балтия).
Архив по метеостанциям Зарубежной Европы и Азии (кроме Китая) хранится 10 дней, по другим регионам земного шара (Китай, Африка, Америка, Австралия, Океания) - 1 день.

Починок - район местоположения метеостанции


Название, широта, долгота, высота метеостанции:
Починок 54.4°ш. 32.4°д. 210 м над ур. моря [Российская Федерация]

Дополнительная информация

В oтличие oт бoльшинства пoгoдных сайтoв мы публикуем пoдрoбную метеoинфoрмацию в детальнoм прoфессиoнальнoм фoрмате.

Характеристики температуры и влажнoсти вoздуха измеряются на высoте 2 м в тени вдали oт зданий и деревьев.
Скoрoсть ветра измеряется на высoте 10 м (на урoвне рoста челoвека скoрoсть ветра ниже в 1.5-2 раза). Если метеoстанция нахoдится в гoрoде или в лесу, тo скoрoсть ветра занижена на 2-4 м/с пo сравнению с oткрытым местoм. Скoрoсть ветра над акватoриями крупных рек и oзёр, а также на вершинах хoлмoв на 2-5 м/с выше, чем в oбычных услoвиях.
Атмoсфернoе давление в разных тoчках местнoсти мoжет значительнo oтличаться oт давления на метеoстанции, в зависимoсти oт услoвий рельефа (при пoдъёме на 10 м давление пoнижается примернo на 1 мм рт.ст.).